Meteo pe oră la Bolshoe Lgovo

Astăzi, 19 Mai, Miercuri

Timp Temperatura Precipitaţii Vânt Presiune Umiditate
00:00 +19°C° 0 mm 5 m/s 743 mmHg 69%
01:00 +19°C° 0 mm 5 m/s 742 mmHg 71%
02:00 +17°C° 0 mm 5 m/s 742 mmHg 74%
03:00 +18°C° 0 mm 4 m/s 742 mmHg 76%
04:00 +17°C° 0 mm 5 m/s 742 mmHg 75%
05:00 +17°C° 0 mm 5 m/s 742 mmHg 74%
06:00 +17°C° 0 mm 5 m/s 742 mmHg 73%
07:00 +19°C° 0 mm 5 m/s 742 mmHg 70%
08:00 +21°C° 0 mm 6 m/s 742 mmHg 67%
09:00 +22°C° 0 mm 6 m/s 743 mmHg 63%
10:00 +23°C° 0 mm 6 m/s 743 mmHg 60%
11:00 +24°C° 0 mm 6 m/s 743 mmHg 56%
12:00 +26°C° 0 mm 6 m/s 743 mmHg 52%
13:00 +27°C° 0 mm 5 m/s 743 mmHg 53%
14:00 +27°C° 0 mm 5 m/s 743 mmHg 53%
15:00 +27°C° 0 mm 5 m/s 742 mmHg 53%
16:00 +27°C° 0 mm 5 m/s 742 mmHg 55%
17:00 +27°C° 0 mm 4 m/s 742 mmHg 58%
18:00 +26°C° 0 mm 4 m/s 742 mmHg 60%
19:00 +24°C° 0.2 mm 3 m/s 742 mmHg 68%
20:00 +21°C° 0.2 mm 3 m/s 742 mmHg 77%
21:00 +19°C° 0.2 mm 2 m/s 742 mmHg 85%
22:00 +18°C° 0.6 mm 2 m/s 742 mmHg 88%
23:00 +18°C° 0.6 mm 2 m/s 742 mmHg 91%

Mâine, 20 Mai, Joi

Timp Temperatura Precipitaţii Vânt Presiune Umiditate
00:00 +17°C° 0.6 mm 2 m/s 742 mmHg 94%
01:00 +17°C° 0.4 mm 2 m/s 742 mmHg 94%
02:00 +17°C° 0.4 mm 3 m/s 741 mmHg 95%
03:00 +17°C° 0.4 mm 3 m/s 741 mmHg 95%
04:00 +17°C° 0.8 mm 3 m/s 741 mmHg 95%
05:00 +17°C° 0.8 mm 3 m/s 741 mmHg 95%
06:00 +17°C° 0.8 mm 3 m/s 741 mmHg 95%
07:00 +18°C° 0 mm 4 m/s 741 mmHg 91%
08:00 +19°C° 0 mm 5 m/s 741 mmHg 86%
09:00 +20°C° 0 mm 5 m/s 741 mmHg 82%
10:00 +20°C° 0.1 mm 6 m/s 741 mmHg 76%
11:00 +21°C° 0.1 mm 6 m/s 741 mmHg 70%
12:00 +21°C° 0.1 mm 6 m/s 741 mmHg 65%
13:00 +21°C° 0.1 mm 6 m/s 741 mmHg 62%
14:00 +22°C° 0.1 mm 6 m/s 740 mmHg 60%
15:00 +22°C° 0.1 mm 6 m/s 740 mmHg 57%
16:00 +21°C° 0.2 mm 6 m/s 740 mmHg 62%
17:00 +20°C° 0.2 mm 6 m/s 740 mmHg 66%
18:00 +19°C° 0.2 mm 5 m/s 740 mmHg 71%
19:00 +17°C° 0 mm 5 m/s 740 mmHg 73%
20:00 +15°C° 0 mm 5 m/s 740 mmHg 76%
21:00 +14°C° 0 mm 5 m/s 740 mmHg 78%
22:00 +14°C° 0 mm 5 m/s 740 mmHg 81%
23:00 +13°C° 0 mm 5 m/s 740 mmHg 83%

Poimâine, 21 Mai, Vineri

Timp Temperatura Precipitaţii Vânt Presiune Umiditate
00:00 +12°C° 0 mm 4 m/s 741 mmHg 85%
01:00 +12°C° 0 mm 4 m/s 741 mmHg 86%
02:00 +12°C° 0 mm 4 m/s 741 mmHg 87%
03:00 +11°C° 0 mm 3 m/s 741 mmHg 88%
04:00 +11°C° 0 mm 3 m/s 741 mmHg 88%
05:00 +11°C° 0 mm 3 m/s 742 mmHg 87%
06:00 +11°C° 0 mm 3 m/s 742 mmHg 86%
07:00 +12°C° 0.1 mm 3 m/s 742 mmHg 87%
08:00 +13°C° 0.1 mm 2 m/s 743 mmHg 87%
09:00 +13°C° 0.1 mm 2 m/s 743 mmHg 87%
10:00 +12°C° 0.3 mm 3 m/s 743 mmHg 89%
11:00 +12°C° 0.3 mm 3 m/s 744 mmHg 90%
12:00 +11°C° 0.3 mm 3 m/s 744 mmHg 92%
13:00 +12°C° 0.1 mm 3 m/s 744 mmHg 89%
14:00 +13°C° 0.1 mm 3 m/s 745 mmHg 85%
15:00 +13°C° 0.1 mm 3 m/s 745 mmHg 82%
16:00 +15°C° 0 mm 2 m/s 745 mmHg 77%
17:00 +16°C° 0 mm 2 m/s 745 mmHg 71%
18:00 +17°C° 0 mm 2 m/s 745 mmHg 66%
19:00 +15°C° 0 mm 2 m/s 746 mmHg 71%
20:00 +14°C° 0 mm 2 m/s 746 mmHg 75%
21:00 +13°C° 0 mm 2 m/s 746 mmHg 80%
22:00 +12°C° 0 mm 1 m/s 747 mmHg 82%
23:00 +11°C° 0 mm 1 m/s 747 mmHg 83%

22 Mai, Sâmbătă

Timp Temperatura Precipitaţii Vânt Presiune Umiditate
00:00 +11°C° 0 mm 1 m/s 747 mmHg 84%
01:00 +10°C° 0 mm 1 m/s 747 mmHg 83%
02:00 +10°C° 0 mm 1 m/s 748 mmHg 83%
03:00 +9°C° 0 mm 1 m/s 748 mmHg 82%
04:00 +10°C° 0 mm 1 m/s 748 mmHg 80%
05:00 +11°C° 0 mm 1 m/s 749 mmHg 78%
06:00 +11°C° 0 mm 1 m/s 749 mmHg 76%
07:00 +13°C° 0 mm 1 m/s 749 mmHg 68%
08:00 +15°C° 0 mm 1 m/s 750 mmHg 61%
09:00 +16°C° 0 mm 1 m/s 750 mmHg 54%
10:00 +18°C° 0 mm 1 m/s 750 mmHg 51%
11:00 +19°C° 0 mm 1 m/s 750 mmHg 48%
12:00 +20°C° 0 mm 1 m/s 750 mmHg 44%
13:00 +20°C° 0 mm 2 m/s 750 mmHg 43%
14:00 +20°C° 0 mm 2 m/s 750 mmHg 42%
15:00 +21°C° 0 mm 2 m/s 749 mmHg 40%
16:00 +21°C° 0 mm 2 m/s 749 mmHg 45%
17:00 +21°C° 0 mm 1 m/s 749 mmHg 49%
18:00 +21°C° 0 mm 1 m/s 749 mmHg 53%
19:00 +19°C° 0 mm 1 m/s 749 mmHg 59%
20:00 +17°C° 0 mm 2 m/s 749 mmHg 65%
21:00 +15°C° 0 mm 2 m/s 749 mmHg 71%
22:00 +14°C° 0 mm 2 m/s 749 mmHg 75%
23:00 +13°C° 0 mm 2 m/s 750 mmHg 80%

23 Mai, Duminică

Timp Temperatura Precipitaţii Vânt Presiune Umiditate
00:00 +12°C° 0 mm 2 m/s 750 mmHg 85%
01:00 +10°C° 0 mm 2 m/s 750 mmHg 86%
02:00 +10°C° 0 mm 2 m/s 749 mmHg 88%
03:00 +9°C° 0 mm 2 m/s 749 mmHg 90%
04:00 +10°C° 0 mm 2 m/s 749 mmHg 88%
05:00 +12°C° 0 mm 2 m/s 749 mmHg 86%
06:00 +11°C° 0 mm 3 m/s 749 mmHg 85%
07:00 +13°C° 0 mm 3 m/s 748 mmHg 80%
08:00 +15°C° 0 mm 4 m/s 748 mmHg 76%
09:00 +16°C° 0 mm 5 m/s 747 mmHg 72%
10:00 +16°C° 0 mm 5 m/s 747 mmHg 74%
11:00 +16°C° 0 mm 5 m/s 746 mmHg 77%
12:00 +16°C° 0 mm 5 m/s 746 mmHg 80%
13:00 +17°C° 0 mm 4 m/s 745 mmHg 81%
14:00 +17°C° 0 mm 4 m/s 744 mmHg 83%
15:00 +18°C° 0 mm 4 m/s 744 mmHg 84%
16:00 +17°C° 0.1 mm 4 m/s 743 mmHg 87%
17:00 +17°C° 0.1 mm 4 m/s 743 mmHg 90%
18:00 +17°C° 0.1 mm 3 m/s 742 mmHg 93%
19:00 +17°C° 0.1 mm 3 m/s 742 mmHg 93%
20:00 +17°C° 0.1 mm 3 m/s 742 mmHg 94%
21:00 +17°C° 0.1 mm 3 m/s 742 mmHg 95%
22:00 +16°C° 0 mm 3 m/s 742 mmHg 95%
23:00 +16°C° 0 mm 3 m/s 741 mmHg 95%

24 Mai, Luni

Timp Temperatura Precipitaţii Vânt Presiune Umiditate
00:00 +14°C° 0 mm 3 m/s 741 mmHg 96%
01:00 +14°C° 0 mm 3 m/s 741 mmHg 96%
02:00 +14°C° 0 mm 3 m/s 741 mmHg 96%
03:00 +13°C° 0 mm 3 m/s 741 mmHg 96%
04:00 +13°C° 0 mm 3 m/s 742 mmHg 96%
05:00 +13°C° 0 mm 3 m/s 742 mmHg 95%
06:00 +13°C° 0 mm 3 m/s 742 mmHg 94%
07:00 +14°C° 0 mm 3 m/s 743 mmHg 88%
08:00 +14°C° 0 mm 3 m/s 743 mmHg 82%
09:00 +14°C° 0 mm 3 m/s 743 mmHg 75%
10:00 +16°C° 0 mm 3 m/s 743 mmHg 71%
11:00 +17°C° 0 mm 3 m/s 743 mmHg 66%
12:00 +17°C° 0 mm 2 m/s 744 mmHg 62%
13:00 +16°C° 0.2 mm 2 m/s 744 mmHg 69%
14:00 +15°C° 0.2 mm 2 m/s 744 mmHg 77%
15:00 +15°C° 0.2 mm 2 m/s 744 mmHg 84%
16:00 +14°C° 0.4 mm 2 m/s 745 mmHg 87%
17:00 +14°C° 0.4 mm 2 m/s 745 mmHg 89%
18:00 +13°C° 0.4 mm 2 m/s 745 mmHg 92%
19:00 +13°C° 0.2 mm 2 m/s 745 mmHg 93%
20:00 +13°C° 0.2 mm 2 m/s 745 mmHg 94%
21:00 +12°C° 0.2 mm 1 m/s 745 mmHg 94%
22:00 +12°C° 0 mm 1 m/s 745 mmHg 95%
23:00 +10°C° 0 mm 2 m/s 745 mmHg 95%
Arată mai mult

Formular de consimțământ

Meteoprog și furnizorii noștri de servicii pot stoca și accesa date personale, precum cookies, identificatori de dispozitiv sau alte tehnologii similare pe dispozitivul dumneavoastră și procesa astfel de date pentru a personaliza conținutul și reclamele, dar și pentru a oferi caracteristici de social media și pentru a analiza traficul.

  • Stocarea și/sau accesarea informațiilor pe dispozitivul dumneavoastră

    Cookies, identificatori de dispozitiv sau alte informații pot fi stocate sau accesate pe dispozitiv în scopurile indicate mai sus.

  • Reclame și conținut personalizat, evaluarea reclamelor și a conținutului, informații despre audiențe și dezvoltarea produselor

    Reclamele și conținutul pot fi personalizate pe baza unui profil. Pot fi adăugate date suplimentare pentru a personaliza mai bine reclamele și conținutul. Performanța reclamelor și conținutului poate fi măsurată. Pot fi obținute informații despre utilizatorii care au văzut reclamele și conținutul. Aceste date pot fi utilizate pentru a dezvolta sau îmbunătăți experiența utilizatorilor, sistemele și software-ul.

Dând clic pe ‘Sunt de acord’, permiteți utilizarea cookie-urilor menționate, a identificatorilor de dispozitiv, balizelor web sau altor tehnologii similare. Setările pot fi modificate din browser-ul dispozitivului dumneavoastră.

În anumite scopuri, interesele legitime pot prima asupra consimțământului. Puteți citi mai multe informații în acest sens în Politica privind Confidențialitatea Datelor și Cookie.